WICT2: Wichita River At Wichita Falls, TX

Data processed at Sun Oct 25 2020 23:29


All information presented herein is the property of the government of the United States of America and may be revised or deleted at any time without prior notice.
Dissemination of this information without the expressed written consent of the Public Affairs Office, Tulsa District U.S. Army Corps of Engineers is strictly prohibited.
These data are gathered electronically and, as presented, have not undergone any form of quality control. These data are not guaranteed to be valid or correct.
Go to home page.
Go to station list.
Go to home page.

Upstream stations:

Downstream station:
Previous Day
Next Day
Current Day
    
SHEF ID:       WICT2     Wichita Rv at Wichita Falls, TX
STATION TYPE:  
Regulating: Stage =    18.50, Flow =     5482

               PRECIP     STAGE  RIV-FLOW  WTR-TEMP   CONDUCT  BAT-LOAD
                   in        ft       cfs         F   umho/cm      volt
              Ccp-Rev   Ccp-Rev   Ccp-Rev   Ccp-Rev   Ccp-Rev   Ccp-Rev
(US/Central)
10/25 00:00      0.00      2.58        71     58.91      1391     12.65
10/25 01:00      0.00      2.55        68     58.64      1411     12.65
10/25 02:00      0.00      2.55        68     58.33      1428     12.65
10/25 03:00      0.00      2.55        68     58.01      1447     12.65
10/25 04:00      0.00      2.53        66     57.72      1464     12.65
10/25 05:00      0.00      2.52        65     57.47      1482     12.57
10/25 06:00      0.00      2.51        64     57.27      1503     12.57
10/25 07:00      0.00      2.50        63     57.16      1523     12.57
10/25 08:00      0.00      2.49        61     57.09      1544     12.57
10/25 09:00      0.00      2.48        60     57.13      1563     12.57
10/25 10:00      0.00      2.46        59     57.31      1584     12.73
10/25 11:00      0.00      2.47        60     57.54      1597     12.81
10/25 12:00      0.00      2.46        59     57.67      1600     12.73
10/25 13:00      0.00      2.45        58     57.81      1599     12.73
10/25 14:00      0.00      2.45        58     57.94      1596     12.73
10/25 15:00      0.00      2.42        55     57.96      1591     12.65
10/25 16:00      0.00      2.42        55     57.97      1571     12.65
10/25 17:00      0.00      2.43        56     57.94      1550     12.57
10/25 18:00      0.00      2.41        53     57.87      1532     12.57
10/25 19:00      0.00      2.41        53     57.78      1510     12.57
10/25 20:00      0.00      2.41        53     57.63      1484     12.49
10/25 21:00      0.00      2.41        53     57.47      1450     12.49
10/25 22:00      ----      ----      ----      ----      ----      ----
10/25 23:00      ----      ----      ----      ----      ----      ----